Home > Weather > Abu Dhabi > Past weeks

Flag for United Arab Emirates Past Weather in Abu Dhabi, Abu Dhabi, United Arab Emirates — Yesterday and Last 2 Weeks

Now
93 °F

Passing clouds.


Feels Like: 101 °F
Forecast: 93 / 104 °F
Wind: 7 mph from Southeast

Location: Abu Dhabi Bateen Airport

Current Time: Jul 29, 2016 at 4:22:41 AM

Latest Report: Jul 29, 2016 at 4:00 AM


Visibility: N/A

Pressure: 29.50 "Hg

Humidity: 49%

Dew Point: 72 °F

Location of Abu DhabiLocation

Past Weather in Abu Dhabi — Graph

°F

Abu Dhabi Temperature Yesterday

Maximum temperature yesterday: 102 °F (at 3:00 PM)
Minimum temperature yesterday: 86 °F (at 6:00 AM)
Average temperature yesterday: 93 °F

High & Low Weather Summary for the Past Weeks

 TemperatureHumidityPressure
High117 °F (Jul 24, 2:00 PM)89% (Jul 14, 3:00 AM)29.59 "Hg (Jul 14, 3:00 AM)
Low86 °F (Jul 28, 6:00 AM)12% (Jul 23, 12:00 PM)29.33 "Hg (Jul 16, 4:00 PM)
Average99 °F47%29.45 "Hg
* Reported Jul 14 3:00 AM — Jul 29 3:00 AM, Abu Dhabi, Weather by CustomWeather, © 2016

Note: Actual official high and low records may vary slightly from our data, if they occured in-between our weather recording intervals... More about our weather records

Advertising

Abu Dhabi Weather History for the Previous 24 Hours

Scroll right to see more
 ConditionsComfort  
Time TempWeatherWind HumidityBarometerVisibility
3:00 AM
Fri, Jul 29
93 °FClear.2 mph56%29.50 "Hg10 mi
2:00 AM93 °FClear.5 mph56%29.50 "Hg10 mi
1:00 AM93 °FClear.8 mph63%29.50 "Hg10 mi
12:00 AM93 °FClear.7 mph67%29.50 "Hg10 mi
11:00 PM
Thu, Jul 28
91 °FClear.9 mph75%29.50 "Hg10 mi
10:00 PM91 °FClear.9 mph75%29.50 "Hg10 mi
9:00 PM91 °FClear.9 mph71%29.50 "Hg10 mi
8:00 PM93 °FClear.10 mph67%29.50 "Hg10 mi
7:00 PM93 °FSunny.13 mph63%29.47 "Hg10 mi
6:00 PM95 °FSunny.13 mph53%29.47 "Hg10 mi
5:00 PM95 °FSunny.15 mph56%29.47 "Hg10 mi
4:00 PM97 °FSunny.14 mph50%29.50 "Hg10 mi
3:00 PM102 °FPassing clouds.8 mph31%29.53 "HgN/A
2:00 PM100 °FPassing clouds.6 mph33%29.53 "HgN/A
1:00 PM99 °FPassing clouds.8 mph35%29.53 "HgN/A
12:00 PM97 °FClear.7 mph39%29.56 "Hg5 mi
11:00 AM93 °FClear.7 mph44%29.56 "Hg5 mi
10:00 AM90 °FClear.9 mph52%29.56 "Hg5 mi
9:00 AM88 °FClear.15 mph55%29.56 "Hg5 mi
8:00 AM86 °FClear.13 mph59%29.56 "Hg5 mi
7:00 AM86 °FClear.15 mph59%29.53 "Hg5 mi
6:00 AM86 °FClear.13 mph59%29.50 "Hg4 mi
5:00 AM88 °FClear.14 mph55%29.50 "Hg4 mi
4:00 AM90 °FDuststorm.16 mph52%29.50 "Hg3 mi
Weather by CustomWeather, © 2016

See weather overviewHow to use our weather pages